Location: Drocourt
(49.0571°N, 1.7669°E)
Time: 23:40:26
(UTC+00:00)

SR - Pass Details

Date: 19 April 2024
Orbit: 579 x 859 km, 66.7° (Epoch: 25 May)

Event Time Altitude Azimuth Distance (km) Brightness Sun altitude
Rises 05:48:06 0° 301° (WNW) 3,202 ? 7.9°
Reaches altitude 10° 05:53:29 10° 347° (NNW) 2,177 ? 8.8°
Maximum altitude 05:53:49 10° 351° (N) 2,167 ? 8.8°
Drops below altitude 10° 05:54:09 10° 355° (N) 2,164 ? 8.9°
Sets 05:59:14 0° 42° (NE) 2,983 ? 9.7°
